AirNav   Air Wisconsin Up To $57,000 Bonus
 
 822 users online  

42VA Virginia Beach Airport
Virginia Beach, Virginia, USA

GOING TO VIRGINIA BEACH?


FAA INFORMATION EFFECTIVE 16 JUNE 2022

Location

FAA Identifier: 42VA
Lat/Long: 36-40-44.0550N 076-01-57.9950W
36-40.734250N 076-01.966583W
36.6789042,-76.0327764
(estimated)
Elevation: 15 ft. / 5 m (estimated)
Variation: 10W (1990)
From city: 4 miles SE of VIRGINIA BEACH, VA
Time zone: UTC -4 (UTC -5 during Standard Time)
Zip code: 23457

Airport Operations

Airport use: Private use. Permission required prior to landing
Activation date: 04/1993
Control tower: no
ARTCC: WASHINGTON CENTER
FSS: LEESBURG FLIGHT SERVICE STATION
Attendance: UNATNDD
Wind indicator: yes
Segmented circle: no

Airport Communications

WX ASOS at NTU (9 nm N): PHONE DSN 433-3619 or 757-433-3619
WX AWOS-3 at CPK (14 nm W): 123.675 (757-204-4290)
WX ASOS at ORF (15 nm NW): PHONE 757-460-9348
WX AWOS-3 at ONX (17 nm S): 119.775 (252-453-8939)

Nearby radio navigation aids

VOR radial/distance  VOR name  Freq  Var
ORFr155/15.1NORFOLK VORTAC116.9007W
ECGr022/26.2ELIZABETH CITY VOR/DME112.5007W

 
NDB name  Hdg/Dist  Freq  Var  ID
INGLE142/14.332909WOR --- .-.
WOODVILLE037/28.025410WLLW .-.. .-.. .--

Airport Services

Runway Information

Runway 11/29

Dimensions: 4845 x 190 ft. / 1477 x 58 m
Surface: turf, in good condition
RUNWAY 11  RUNWAY 29
Latitude: 36-40.824167N36-40.644333N
Longitude: 076-02.449500W076-01.483667W
Elevation: 10.0 ft.9.0 ft.
Traffic pattern: leftleft

Airport Ownership and Management from official FAA records

Ownership: Privately-owned
Owner: VIRGINIA BEACH ARPT, LLC
4455 SOUTH BLVD
VIRGINIA BEACH, VA 23452
Phone 757-490-3157
Manager: GERALD YAGEN
4455 SOUTH BLVD
VIRGINIA BEACH, VA 23452
Phone 757-490-3157
EXTENSION 500.

Airport Operational Statistics

Aircraft based on the field: 54
Single engine airplanes: 50
Multi engine airplanes: 4
    

Additional Remarks

AWOS - PHONE 757-204-2683, FREQUENCY 119.925
FOR CD CTC WASHINGTON ARTCC AT 703-771-3587.

Instrument Procedures

There are no published instrument procedures at 42VA.

Some nearby airports with instrument procedures:

KNTU - Oceana Naval Air Station (Apollo Soucek Field) (9 nm N)
KCPK - Chesapeake Regional Airport (14 nm W)
KORF - Norfolk International Airport (15 nm NW)
KONX - Currituck County Regional Airport (17 nm S)
KNGU - Norfolk Naval Station (Chambers Field) (20 nm NW)
 
Loc | Ops | Rwys | IFR | FBO | Links
Com | Nav | Svcs | Stats | Notes
Area around 42VA (Virginia Beach Airport)
 
Road maps at: MapQuest Bing Google
 
Aerial photo
WARNING: Photo may not be current or correct
Aerial photo of 42VA (Virginia Beach Airport)
Photo by Jerry Yagen
Photo taken 10-Nov-2012
looking east.

Do you have a better or more recent aerial photo of Virginia Beach Airport that you would like to share? If so, please send us your photo.

 
Sectional chart

 
Airport distance calculator
Flying to Virginia Beach Airport? Find the distance to fly.

From to 42VA

Sunrise and sunset
Times for 07-Jul-2022
 Local
(UTC-4)
 Zulu
(UTC)
Morning civil twilight05:2309:23
Sunrise05:5309:53
Sunset20:2500:25
Evening civil twilight20:5500:55

Current date and time
Zulu (UTC)  07-Jul-2022 11:43:55
Local (UTC-4)  07-Jul-2022 07:43:55
 
METAR
KNFE 
5nm W 
071056Z AUTO 00000KT 10SM FEW060 SCT085 26/22 A2992 RMK AO2 SLP134 T02560222
KNTU 
8nm N 
071056Z 23006KT 10SM FEW050 BKN160 26/22 A2990 RMK AO2 SLP128 T02610217
KCPK 
14nm W 
071115Z AUTO 00000KT 10SM SCT090 23/22 A2992 RMK AO2 T02330220
KORF 
16nm NW 
071051Z 24006KT 10SM CLR 26/22 A2991 RMK AO2 SLP128 T02560217
KONX 
17nm S 
071115Z AUTO 00000KT 10SM OVC090 24/24 A2994 RMK AO2 T02430243
KNGU 
18nm NW 
071059Z 22005KT 10SM FEW050 SCT150 BKN250 26/22 A2992 RMK AO2 SLP133 T02560217
TAF
KNTU 
8nm N 
0707/0807 VRB06KT 9999 VCSH SCT030 BKN170 OVC250 QNH2982INS TEMPO 0707/0712 6000 -SHRA BR BKN020 BKN100 OVC200 FM071700 VRB06KT 9999 SCT030CB BKN050 OVC180 QNH2980INS TEMPO 0718/0800 VRB30G40KT 3200 TSRA BKN015CB OVC050 FM080300 VRB06KT 9999 VCSH SCT010 OVC050 QNH2981INS TEMPO 0803/0807 4800 SHRA BKN010 OVC030 T23/0710Z T32/0719Z FN00172
KORF 
16nm NW 
070539Z 0706/0806 24005KT P6SM SCT070 BKN250 FM071800 31006KT P6SM BKN050 FM072200 08007KT P6SM VCTS BKN050CB FM080000 07007KT 4SM SHRA VCTS SCT020 BKN040CB FM080200 14005KT 5SM SHRA BKN015
KNGU 
18nm NW 
0707/0807 VRB06KT 9999 VCSH FEW030 FEW170 BKN250 QNH2985INS TEMPO 0707/0712 6000 -SHRA BR SCT030 SCT090 OVC200 FM071200 24007KT 9999 VCSH FEW020 BKN050 OVC250 QNH2984INS FM071500 VRB06KT 9999 SCT030CB BKN050 OVC200 QNH2982INS TEMPO 0717/0723 VRB20G30KT 4800 -TSRA BR BKN020CB OVC050 FM080100 01010KT 9999 VCSH FEW010 BKN040 OVC070 QNH2985INS TEMPO 0801/0806 6000 SHRA BKN010 OVC030 T24/0710Z T32/0719Z FN00172
NOTAMs
Click for the latest NOTAMs
NOTAMs are issued by the DoD/FAA and will open in a separate window not controlled by AirNav.

 

 
 

Would you like to see your business listed on this page?

 If your business provides an interesting product or service to pilots, flight crews, aircraft, or users of the Virginia Beach Airport, you should consider listing it here.  To start the listing process, click on the button below
 
Add a business
 

Other Pages about Virginia Beach Airport

www.vbairport.com
Military Aviation Museum
www.fighterfactory.com
 
Update a link
 
Copyright © AirNav, LLC. All rights reserved. Privacy Policy  Contact